"2005/01/01",128,129,127
"2005/01/02",129,130,129
"2005/01/03",130,130,130
"2005/01/04",130,131,127
"2005/01/05",123,127,120
"2005/01/06",117,120,116
"2005/01/07",117,117,117
"2005/01/08",117,118,117
"2005/01/09",118,119,118
"2005/01/10",119,119,118
"2005/01/11",119,120,119
"2005/01/12",120,120,119
"2005/01/13",120,120,119
"2005/01/14",120,121,120
"2005/01/15",122,130,121
"2005/01/16",145,155,130
"2005/01/17",160,163,156
"2005/01/18",164,165,161
"2005/01/19",152,161,144
"2005/01/20",137,143,133
"2005/01/21",131,133,129
"2005/01/22",127,129,125
"2005/01/23",124,125,123
"2005/01/24",121,123,121
"2005/01/25",119,121,119
"2005/01/26",118,119,118
"2005/01/27",119,119,118
"2005/01/28",120,121,119
"2005/01/29",121,122,121
"2005/01/30",122,122,121
"2005/01/31",123,123,122
"2005/02/01",124,124,123
"2005/02/02",124,124,123
"2005/02/03",124,125,121
"2005/02/04",118,121,117
"2005/02/05",117,118,117
"2005/02/06",118,118,117
"2005/02/07",118,119,118
"2005/02/08",120,121,119
"2005/02/09",121,122,121
"2005/02/10",122,123,122
"2005/02/11",123,123,123
"2005/02/12",123,124,123
"2005/02/13",124,124,124
"2005/02/14",124,125,124
"2005/02/15",125,125,125
"2005/02/16",127,129,125
"2005/02/17",129,129,128
"2005/02/18",130,131,129
"2005/02/19",131,133,130
"2005/02/20",133,134,133
"2005/02/21",134,135,134
"2005/02/22",135,136,135
"2005/02/23",135,136,134
"2005/02/24",132,134,131
"2005/02/25",131,132,130
"2005/02/26",126,130,123
"2005/02/27",121,123,118
"2005/02/28",117,118,117
"2005/03/01",118,118,118
"2005/03/02",118,119,118
"2005/03/03",119,120,119
"2005/03/04",121,122,120
"2005/03/05","*","*","*"
"2005/03/06","*","*","*"
"2005/03/07","*","*","*"
"2005/03/08",128,129,127
"2005/03/09",124,127,123
"2005/03/10",120,123,119
"2005/03/11",118,119,116
"2005/03/12",120,121,119
"2005/03/13",121,121,121
"2005/03/14",122,122,121
"2005/03/15",122,123,122
"2005/03/16",123,124,123
"2005/03/17",124,124,123
"2005/03/18",124,125,121
"2005/03/19",117,120,116
"2005/03/20",117,117,116
"2005/03/21",117,118,117
"2005/03/22",117,119,117
"2005/03/23",120,123,119
"2005/03/24",123,124,123
"2005/03/25",124,125,123
"2005/03/26",123,125,120
"2005/03/27",118,120,117
"2005/03/28",118,122,117
"2005/03/29",122,123,122
"2005/03/30",123,123,122
"2005/03/31",123,124,123
"2005/04/01",124,125,124
"2005/04/02",124,125,119
"2005/04/03",117,119,116
"2005/04/04",119,119,117
"2005/04/05",119,120,119
"2005/04/06",120,120,120
"2005/04/07",119,120,118
"2005/04/08",120,121,119
"2005/04/09",121,122,121
"2005/04/10",121,121,120
"2005/04/11",123,126,120
"2005/04/12",125,126,125
"2005/04/13",127,127,126
"2005/04/14",126,128,122
"2005/04/15",119,122,117
"2005/04/16",117,117,116
"2005/04/17",116,116,116
"2005/04/18",116,116,116
"2005/04/19",115,116,115
"2005/04/20",115,115,115
"2005/04/21",118,120,115
"2005/04/22",118,119,117
"2005/04/23",117,118,117
"2005/04/24",117,117,117
"2005/04/25",116,117,116
"2005/04/26",117,119,115
"2005/04/27",120,120,119
"2005/04/28",120,121,119
"2005/04/29",120,121,119
"2005/04/30",121,121,120
"2005/05/01",120,120,120
"2005/05/02",125,126,120
"2005/05/03",125,126,122
"2005/05/04",118,122,116
"2005/05/05",116,116,116
"2005/05/06",116,117,116
"2005/05/07",118,119,117
"2005/05/08",120,121,119
"2005/05/09",121,121,121
"2005/05/10",121,121,120
"2005/05/11",121,121,120
"2005/05/12",120,120,120
"2005/05/13",121,121,120
"2005/05/14",120,121,119
"2005/05/15",119,119,119
"2005/05/16",119,120,119
"2005/05/17",119,120,118
"2005/05/18",118,118,117
"2005/05/19",117,119,117
"2005/05/20",118,119,118
"2005/05/21",118,118,117
"2005/05/22",117,117,117
"2005/05/23",117,118,117
"2005/05/24",119,121,118
"2005/05/25",121,122,121
"2005/05/26",122,122,122
"2005/05/27",122,122,122
"2005/05/28",122,122,122
"2005/05/29",122,122,122
"2005/05/30",122,123,122
"2005/05/31",127,129,123
"2005/06/01",130,131,128
"2005/06/02",121,128,117
"2005/06/03",120,121,117
"2005/06/04",123,124,121
"2005/06/05",124,124,124
"2005/06/06",122,124,117
"2005/06/07",116,117,115
"2005/06/08",115,115,115
"2005/06/09",115,115,115
"2005/06/10",115,117,114
"2005/06/11",118,118,117
"2005/06/12",119,119,118
"2005/06/13",119,119,119
"2005/06/14",119,119,119
"2005/06/15",119,120,119
"2005/06/16",121,121,120
"2005/06/17",121,121,121
"2005/06/18",122,122,121
"2005/06/19",122,122,122
"2005/06/20",122,123,122
"2005/06/21",123,123,122
"2005/06/22",126,130,122
"2005/06/23",125,127,119
"2005/06/24",117,119,116
"2005/06/25",116,117,116
"2005/06/26",117,117,116
"2005/06/27",117,117,117
"2005/06/28",117,117,116
"2005/06/29",119,119,117
"2005/06/30",121,122,119
"2005/07/01",122,123,122
"2005/07/02",123,124,123
"2005/07/03",122,124,117
"2005/07/04",125,129,117
"2005/07/05",129,131,128
"2005/07/06",136,138,131
"2005/07/07",133,134,130
"2005/07/08",129,130,125
"2005/07/09",122,125,119
"2005/07/10",126,132,122
"2005/07/11",127,128,126
"2005/07/12",128,129,124
"2005/07/13",121,124,117
"2005/07/14",117,117,116
"2005/07/15",117,118,117
"2005/07/16",118,118,117
"2005/07/17",118,118,118
"2005/07/18",118,118,118
"2005/07/19",118,118,118
"2005/07/20",118,118,117
"2005/07/21",117,117,117
"2005/07/22",117,117,117
"2005/07/23",116,117,116
"2005/07/24",116,116,115
"2005/07/25",116,120,115
"2005/07/26",135,148,120
"2005/07/27",142,144,140
"2005/07/28",145,146,144
"2005/07/29",143,146,140
"2005/07/30",135,140,127
"2005/07/31",125,128,119
"2005/08/01",118,119,116
"2005/08/02",117,119,116
"2005/08/03",117,118,117
"2005/08/04",117,117,117
"2005/08/05",117,117,117
"2005/08/06",116,117,116
"2005/08/07",115,116,115
"2005/08/08",118,127,114
"2005/08/09",121,123,121
"2005/08/10",123,124,120
"2005/08/11",119,120,118
"2005/08/12",120,134,118
"2005/08/13",132,137,129
"2005/08/14",137,138,135
"2005/08/15",134,136,131
"2005/08/16",132,134,128
"2005/08/17",126,128,121
"2005/08/18",118,121,114
"2005/08/19",113,114,112
"2005/08/20",112,113,112
"2005/08/21",112,112,111
"2005/08/22",111,111,111
"2005/08/23",114,121,111
"2005/08/24",115,115,115
"2005/08/25",118,130,115
"2005/08/26",141,153,129
"2005/08/27",145,147,143
"2005/08/28",145,147,143
"2005/08/29",139,143,135
"2005/08/30",131,135,127
"2005/08/31",124,127,119
"2005/09/01",118,119,116
"2005/09/02",116,116,116
"2005/09/03",116,116,116
"2005/09/04",117,118,116
"2005/09/05",119,120,118
"2005/09/06",120,121,120
"2005/09/07",121,122,120
"2005/09/08",122,123,121
"2005/09/09",120,123,119
"2005/09/10",117,119,116
"2005/09/11",118,121,116
"2005/09/12",122,124,121
"2005/09/13",124,125,124
"2005/09/14",120,125,115
"2005/09/15",116,116,115
"2005/09/16",116,116,116
"2005/09/17",116,116,115
"2005/09/18",115,116,115
"2005/09/19",116,116,115
"2005/09/20",116,117,116
"2005/09/21",116,117,116
"2005/09/22",116,116,116
"2005/09/23",116,116,116
"2005/09/24",119,121,116
"2005/09/25",124,127,121
"2005/09/26",122,123,122
"2005/09/27",122,122,122
"2005/09/28",122,122,122
"2005/09/29",122,122,122
"2005/09/30",122,122,121
"2005/10/01",121,122,121
"2005/10/02",121,122,121
"2005/10/03",122,122,122
"2005/10/04",122,123,122
"2005/10/05",124,125,123
"2005/10/06",126,126,125
"2005/10/07",120,126,117
"2005/10/08",119,121,117
"2005/10/09",122,123,121
"2005/10/10",125,127,123
"2005/10/11",128,129,127
"2005/10/12",124,129,118
"2005/10/13",118,118,118
"2005/10/14",118,118,118
"2005/10/15",119,121,118
"2005/10/16",126,128,121
"2005/10/17",131,138,128
"2005/10/18",139,143,136
"2005/10/19",141,143,140
"2005/10/20",135,140,133
"2005/10/21",128,134,126
"2005/10/22",122,126,120
"2005/10/23",117,120,116
"2005/10/24",117,118,117
"2005/10/25",118,119,118
"2005/10/26",120,120,119
"2005/10/27",121,122,120
"2005/10/28",122,123,122
"2005/10/29",123,124,123
"2005/10/30",124,125,124
"2005/10/31",125,126,124
"2005/11/01",119,124,118
"2005/11/02",118,118,118
"2005/11/03",118,119,118
"2005/11/04",119,119,119
"2005/11/05",119,120,119
"2005/11/06",120,125,120
"2005/11/07",127,128,125
"2005/11/08",122,127,119
"2005/11/09",117,119,117
"2005/11/10",117,118,117
"2005/11/11",118,118,118
"2005/11/12",119,120,118
"2005/11/13",120,121,120
"2005/11/14",121,122,121
"2005/11/15",122,122,122
"2005/11/16",122,122,122
"2005/11/17",122,123,122
"2005/11/18",123,123,123
"2005/11/19",123,123,123
"2005/11/20",123,124,123
"2005/11/21",124,124,124
"2005/11/22",124,124,124
"2005/11/23",120,124,117
"2005/11/24",117,117,117
"2005/11/25",118,118,117
"2005/11/26",118,118,118
"2005/11/27",118,119,118
"2005/11/28",119,119,119
"2005/11/29",119,119,119
"2005/11/30",119,120,119
"2005/12/01",120,120,120
"2005/12/02",120,120,120
"2005/12/03",120,120,120
"2005/12/04",120,121,120
"2005/12/05",121,121,121
"2005/12/06",122,122,121
"2005/12/07",122,122,122
"2005/12/08",122,122,122
"2005/12/09",122,122,122
"2005/12/10",122,122,122
"2005/12/11",123,123,122
"2005/12/12",123,123,123
"2005/12/13",123,123,122
"2005/12/14",123,123,123
"2005/12/15",123,123,123
"2005/12/16",123,123,123
"2005/12/17",123,124,123
"2005/12/18",123,124,122
"2005/12/19",123,123,122
"2005/12/20",123,123,122
"2005/12/21",124,124,123
"2005/12/22",123,124,122
"2005/12/23",123,124,122
"2005/12/24",124,124,123
"2005/12/25",124,124,122
"2005/12/26",119,122,117
"2005/12/27",117,117,117
"2005/12/28",118,118,117
"2005/12/29",118,118,118
"2005/12/30",118,118,118
"2005/12/31",118,119,118
